Home > Weather > Cadiz > Past weeks

Flag for Spain Past Weather in Cadiz, Cádiz, Spain — Yesterday and Last 2 Weeks

Now
68 °F

Passing clouds.


Feels Like: 68 °F
Forecast: 63 / 84 °F
Wind: 8 mph from South

Location: Rota Airport

Current Time: Jun 26, 2016 at 3:10:07 AM

Latest Report: Jun 26, 2016 at 2:00 AM


Visibility: 5 mi

Pressure: 29.95 "Hg

Humidity: 88%

Dew Point: 64 °F

Location of CadizLocation

Past Weather in Cadiz — Graph

°F

Cadiz Temperature Yesterday

Maximum temperature yesterday: 75 °F (at 4:00 PM)
Minimum temperature yesterday: 66 °F (at 5:00 AM)
Average temperature yesterday: 70 °F

High & Low Weather Summary for the Past Weeks

 TemperatureHumidityPressure
High91 °F (Jun 21, 3:00 PM)94% (Jun 26, 1:00 AM)30.21 "Hg (Jun 26, 1:00 AM)
Low59 °F (Jun 18, 6:00 AM)18% (Jun 21, 4:00 PM)29.83 "Hg (Jun 15, 7:00 PM)
Average72 °F63%30.02 "Hg
* Reported Jun 11 2:00 AM — Jun 26 2:00 AM, Cadiz, Weather by CustomWeather, © 2016

Note: Actual official high and low records may vary slightly from our data, if they occured in-between our weather recording intervals... More about our weather records

Advertising

Cadiz Weather History for the Previous 24 Hours

Scroll right to see more
 ConditionsComfort  
Time TempWeatherWind HumidityBarometerVisibility
2:00 AM
Sun, Jun 26
68 °FPassing clouds.8 mph88%29.95 "Hg5 mi
1:00 AM68 °FPassing clouds.8 mph94%29.98 "Hg5 mi
12:00 AM68 °FPassing clouds.5 mph88%29.95 "HgN/A
11:00 PM
Sat, Jun 25
68 °FClear.8 mph88%29.95 "Hg10 mi
10:00 PM70 °FSunny.9 mph83%29.92 "Hg10 mi
9:00 PM72 °FSunny.12 mph78%29.92 "Hg10 mi
8:00 PM72 °FSunny.12 mph78%29.92 "Hg10 mi
7:00 PM73 °FSunny.10 mph74%29.95 "Hg10 mi
6:00 PM73 °FPassing clouds.13 mph78%29.95 "HgN/A
5:00 PM73 °FPassing clouds.16 mph69%29.98 "HgN/A
4:00 PM75 °FSunny.15 mph61%29.98 "Hg10 mi
2:00 PM73 °FPassing clouds.10 mph69%29.98 "HgN/A
1:00 PM72 °FPassing clouds.8 mph73%30.01 "HgN/A
12:00 PM72 °FPassing clouds.9 mph73%30.01 "HgN/A
11:00 AM72 °FPassing clouds.8 mph73%30.01 "HgN/A
10:00 AM72 °FSunny.1 mph73%29.98 "Hg10 mi
9:00 AM70 °FPassing clouds.5 mph78%29.98 "HgN/A
8:00 AM66 °FClear.No wind88%29.95 "Hg10 mi
7:00 AM66 °FClear.No wind88%29.95 "Hg10 mi
6:00 AM66 °FClear.1 mph88%29.95 "Hg10 mi
5:00 AM66 °FClear.No wind88%29.95 "Hg10 mi
4:00 AM68 °FClear.1 mph88%29.98 "Hg10 mi
3:00 AM68 °FClear.No wind88%29.98 "Hg10 mi
Weather by CustomWeather, © 2016

See weather overviewHow to use our weather pages